Other Public Products
Issued by NWS Grand Forks, ND

Home | Current Version | Previous Version | Graphics & Text | Print | Product List | Glossary On
Versions: 1 2 3 4 5 6 7 8 9 10 11 12 13 14 15 16 17 18 19 20 21 22 23 24 25 26 27 28 29 30 31 32 33 34 35 36 37 38 39 40 41 42 43 44 45 46 47 48 49 50
000
FPUS83 KFGF 292210
OPUFGF
PRAIRIE TO PINES WEATHER ROUNDUP
NATIONAL WEATHER SERVICE EASTERN NORTH DAKOTA/GRAND FORKS ND
500 PM CDT SUN MAR 29 2015

 **SATELLITE DATA USED TO AUGMENT SKY COVER AT AUTOMATED STATIONS**
 *****  WEATHER ACROSS EASTERN NORTH DAKOTA  *****

CITY           SKY/WX    TMP DP  RH WIND       PRES   REMARKS
GRAND FORKS    PTSUNNY   53  25  33 NW22G31   29.88R
GRAND FORKS AF NOT AVBL
GRAND CITY NWS   N/A     50 N/A N/A N20         N/A
BUXTON         NOT AVBL
DEVILS LAKE    PTSUNNY   54  28  37 NW23G29   29.89S
FARGO          MOSUNNY   55  23  28 NW29G38   29.90R
WAHPETON ARPT  MOCLDY    55  23  28 NW33      29.91S
$$

 *****  WEATHER ACROSS CENTRAL AND WESTERN NORTH DAKOTA  *****

CITY           SKY/WX    TMP DP  RH WIND       PRES   REMARKS
JAMESTOWN      PTSUNNY   55  24  30 NW21G31   29.94S
BISMARCK       MOSUNNY   60  29  30 NW16G28   29.99F
MINOT          PTSUNNY   58  28  32 W20G28    29.93F
MINOT AFB      SUNNY     56  32  39 NW23G29   29.91F
GARRISON         N/A     58  32  37 NW23G31   29.96F
WILLISTON      PTSUNNY   58  29  33 W10G21    29.97F
DICKINSON      SUNNY     60  26  27 NW21G26   29.99F
HETTINGER      PTSUNNY   62  27  26 W24G30    30.03F
$$

 *****  OTHER OBSERVATIONS NORTHEAST NORTH DAKOTA  *****

CITY           SKY/WX    TMP DP  RH WIND       PRES   REMARKS
WALHALLA       NOT AVBL
LANGDON        NOT AVBL
CAVALIER       FAIR      52  30  43 NW21      29.86S
GRAFTON        NOT AVBL
CANDO          NOT AVBL
FORT TOTTEN    NOT AVBL
ROLLA          CLOUDY    48  32  53 NW18G25   29.90S
RUGBY          FAIR      54  32  43 NW23G33   29.91S
 ***** THE ABOVE OBSERVATIONS ARE NON NWS ARE NOT QUALITY
        CONTROLLED AND MAY MIS-REPORT RAIN FOR SNOW...
$$

 *****  OTHER OBSERVATIONS SOUTHEAST NORTH DAKOTA *****

CITY           SKY/WX    TMP DP  RH WIND       PRES   REMARKS
COOPERSTOWN    NOT AVBL
VALLEY CITY    CLOUDY    55  23  28 NW22G31   29.93S
OAKES            N/A     54  30  40 NW20G26   29.97R
GWINNER        PTCLDY    55  30  38 NW21G28     N/A
SHEYENNE NWR     N/A     57  23  27 NW17      29.95
BUFFALO        NOT AVBL
WYNDMERE         N/A     55  28  35 NW20        N/A
 ***** THE ABOVE OBSERVATIONS ARE NON NWS ARE NOT QUALITY
       CONTROLLED AND MAY MIS-REPORT RAIN FOR SNOW...
$$

  *****  WEATHER ACROSS NORTHERN MINNESOTA  *****

CITY           SKY/WX    TMP DP  RH WIND       PRES   REMARKS
FLAG ISLAND    MOSUNNY   43  28  56 NW21      29.76R
WARROAD        MOSUNNY   48  30  49 NW20G32   29.80R
ROSEAU         MOSUNNY   48  30  49 NW21G26   29.81R
HALLOCK        SUNNY     52  30  43 NW21G28   29.84F
THF RVR FALLS  MOSUNNY   48  30  49 NW23G31   29.86R
HALSTAD        NOT AVBL
FOSSTON        MOSUNNY   48  28  46 NW25G37   29.86R
BAUDETTE       MOSUNNY   46  28  49 NW25      29.76R
WASKISH        MOSUNNY   46  28  49 NW16G28   29.78R
CROOKSTON      MOSUNNY   52  30  43 NW18G24   29.88R
$$
  *****  WEATHER ACROSS CENTRAL AND WEST MINNESOTA  *****

CITY           SKY/WX    TMP DP  RH WIND       PRES   REMARKS
BEMIDJI        MOSUNNY   47  27  47 NW17G23   29.81R
PARK RAPIDS    PTSUNNY   52  28  39 NW24G37   29.82R
WADENA         MOSUNNY   50  28  43 NW26G35   29.85R
DETROIT LAKES  SUNNY     50  28  43 N31G39    29.88R
MOORHEAD       PTSUNNY   55  21  26 NW22G32   29.90R
FERGUS FALLS   MOSUNNY   54  23  30 NW28G36   29.91S
ELBOW LAKE     FAIR      51  28  41 NW23G32   29.89S
MORRIS MN      SUNNY     55  27  33 NW29G37   29.90R
STAPLES        PTSUNNY   48  27  43 NW28G37   29.84R
WHEATON        PTSUNNY   54  27  35 NW24G33   29.94R
$$
  *****  WEATHER ELSEWHERE ACROSS MINNESOTA  *****

CITY           SKY/WX    TMP DP  RH WIND       PRES   REMARKS
DULUTH         PTSUNNY   42  30  62 NW20G39   29.67R
INTRNTL FALLS  PTSUNNY   44  28  53 NW22G29   29.72R
ELY            LGT RAIN  37  32  81 NW13G23   29.64R
CLOQUET        MOSUNNY   45  27  49 NW22G35   29.70R
BRAINERD       MOSUNNY   50  26  39 NW31G39   29.81R
HIBBING        PTSUNNY   44  29  55 NW25G36   29.70R
ALEXANDRIA     MOSUNNY   50  27  40 NW29G41   29.88R
SAINT CLOUD    MOSUNNY   51  28  41 NW29G40   29.81R
MINNEAPOLIS    MOSUNNY   52  26  36 NW33G43   29.79R
$$

  *****  WEATHER ACROSS SOUTH DAKOTA  *****

CITY           SKY/WX    TMP DP  RH WIND       PRES   REMARKS
SIOUX FALLS    SUNNY     59  22  24 NW24G33   30.00R
BROOKINGS      NOT AVBL
WATERTOWN      SUNNY     55  23  28 NW24G37   29.98R
HURON          SUNNY     60  17  18 NW28G35   30.01F
SISSETON         N/A     56  26  31 NW29G41   29.93S
ABERDEEN       SUNNY     60  22  23 NW26      30.01S
MITCHELL       SUNNY     61  17  18 NW28G33   30.04S
PIERRE         SUNNY     61  24  24 NW17G25   30.05F
MOBRIDGE       SUNNY     61  29  29 NW18G24   30.00F
RAPID CITY     PTSUNNY   63  26  24 NW12G21   30.08S
$$

  *****  SOME WEATHER IN NEARBY STATES *****

CITY           SKY/WX    TMP DP  RH WIND       PRES   REMARKS
GLASGOW MT     MOSUNNY   60  30  32 W18       29.96F
GREAT FALLS MT MOSUNNY   59  22  24 SW24G31   30.03F
CHEYENNE WY    PTSUNNY   60  18  19 SW15      30.16F
SCOTTSBLUFF NE MOSUNNY   64  23  21 N6        30.13F
OMAHA NE       SUNNY     62  28  27 N22G31    30.03R
DES MOINES IA  MOSUNNY   63  27  25 N24G37    29.93R
DAVENPORT IA   CLOUDY    54  40  59 W22G33    29.80R
CHICAGO IL     MOSUNNY   45  33  63 SW18G30   29.76F
EAU CLAIRE WI  PTSUNNY   47  33  58 NW18G31   29.71R
LA CROSSE WI   CLOUDY    49  37  63 W12       29.74R
$$

  *****  SOME NATIONAL WEATHER *****

CITY           SKY/WX    TMP DP  RH WIND       PRES   REMARKS
LA GUARDIA NY  MOSUNNY   46   4  17 W10       30.17R
RALEIGH NC     MOSUNNY   51  11  20 SW7       30.31S
ATLANTA GA     MOSUNNY   61  21  21 S9        30.25F
NEW ORLEANS LA MOSUNNY   74  60  61 SE17G26   30.19F
OKLAHOMA CITY  MOSUNNY   76  39  26 N18       30.03S
ALBUQUERQUE NM PTSUNNY   77  18  11 CALM      30.15F
SALT LAKE CITY SUNNY     65  21  18 N13       30.22F
LOS ANGELES CA MOSUNNY   67  57  70 W13       30.00F
BOISE ID       SUNNY     65  28  24 NW6       30.22F
SEATTLE WA     CLOUDY    59  43  55 SW8       30.22F
$$

*** WEATHER ACROSS MANITOBA...SASKATCHEWAN AND ONTARIO ***
                ***ONTARIO***

CITY           SKY/WX    TMP DP  RH WIND       PRES   REMARKS
GERALDTON      LGT SNOW  32  30  93 W6        29.36R VSB 3/4
THUNDER BAY    PTSUNNY   41  34  75 NW14G25   29.48R
SIOUX LOOKOUT  NOT AVBL
TORONTO        CLOUDY    39  14  35 S17G24    29.93F
BIG TROUT LK   FLURRIES  19  16  86 N15G23    29.58R WCI   5
PICKLE LAKE    FLURRIES  34  27  75 N15G29    29.51R WCI  24
DRYDEN         CLOUDY    41  25  52 NW13G20   29.64R
KENORA         PTSUNNY   45  27  49 NW15G26   29.72R
$$
                *** MANITOBA***

CITY           SKY/WX    TMP DP  RH WIND       PRES   REMARKS
BRANDON        MOSUNNY   50  34  53 W21       29.89S
DAUPHIN        SUNNY     46  32  57 W22G30    29.83R
ISLAND LAKE    CLOUDY    27  23  86 N14G21    29.75R WCI  15
PILOT MOUND      N/A     46  28  49 NW18G26     N/A
THE PAS        MOSUNNY   48  27  43 NW17      29.77S
THOMPSON       PTSUNNY   25  16  68 N5        29.81R WCI  19
WINNIPEG       MOSUNNY   50  28  43 NW21G28   29.83S
LYNN LAKE      SUNNY     36  23  60 VRB3      29.76S
CHURCHILL      PTSUNNY    7   1  78 N13       29.93R WCI  -9
GILLAM         SUNNY     18   0  45 NE8       29.84R WCI   7
$$
                ***SASKATCHEWAN***

CITY           SKY/WX    TMP DP  RH WIND       PRES   REMARKS
ESTEVAN        MOSUNNY   55  32  41 W18       29.93F
KINDERSLEY     PTSUNNY   59  36  41 SW14      29.82F
LLOYDMINSTER   NOT AVBL
PRINCE ALBERT  PTSUNNY   52  32  46 W13       29.83F
REGINA         MOSUNNY   54  30  40 W7        29.91F


USA.gov is the U.S. government's official web portal to all federal, state and local government web resources and services.